owner,sensor,date,latitude,longitude,vertical_datum,sea_water_temperature,qcFlag 
COMPS,ioos:station:USF.COMPS:C10:1,2010-03-05T03:40:00Z,27.1690,-82.9260,-1.0,5.0,2 
COMPS,ioos:station:USF.COMPS:C10:1,2010-03-05T04:00:00Z,27.1690,-82.9260,-1.0,5.0,2 
COMPS,ioos:station:USF.COMPS:C10:1,2010-03-05T04:20:00Z,27.1690,-82.9260,-1.0,5.0,2 
COMPS,ioos:station:USF.COMPS:C10:1,2010-03-05T06:40:00Z,27.1690,-82.9260,-1.0,5.0,2 
COMPS,ioos:station:USF.COMPS:C10:1,2010-03-05T07:00:00Z,27.1690,-82.9260,-1.0,5.0,2 
COMPS,ioos:station:USF.COMPS:C10:1,2010-03-05T07:20:00Z,27.1690,-82.9260,-1.0,5.0,2 
COMPS,ioos:station:USF.COMPS:C10:1,2010-03-06T21:40:00Z,27.1690,-82.9260,-1.0,6.0,2 
COMPS,ioos:station:USF.COMPS:C10:1,2010-03-06T22:00:00Z,27.1690,-82.9260,-1.0,6.0,2 
COMPS,ioos:station:USF.COMPS:C10:1,2010-03-06T22:20:00Z,27.1690,-82.9260,-1.0,6.0,2 
COMPS,ioos:station:USF.COMPS:C10:1,2010-03-06T22:40:00Z,27.1690,-82.9260,-1.0,6.0,2 
COMPS,ioos:station:USF.COMPS:C10:1,2010-03-06T23:00:00Z,27.1690,-82.9260,-1.0,6.0,2 
COMPS,ioos:station:USF.COMPS:C10:1,2010-03-06T23:20:00Z,27.1690,-82.9260,-1.0,6.0,2 
COMPS,ioos:station:USF.COMPS:C10:1,2010-03-08T00:40:00Z,27.1690,-82.9260,-1.0,8.0,2 
COMPS,ioos:station:USF.COMPS:C10:1,2010-03-08T01:00:00Z,27.1690,-82.9260,-1.0,8.0,2 
COMPS,ioos:station:USF.COMPS:C10:1,2010-03-08T01:20:00Z,27.1690,-82.9260,-1.0,8.0,2 
COMPS,ioos:station:USF.COMPS:C10:1,2010-03-09T15:40:00Z,27.1690,-82.9260,-1.0,9.0,2 
COMPS,ioos:station:USF.COMPS:C10:1,2010-03-09T16:00:00Z,27.1690,-82.9260,-1.0,9.0,2 
COMPS,ioos:station:USF.COMPS:C10:1,2010-03-09T16:20:00Z,27.1690,-82.9260,-1.0,9.0,2 
COMPS,ioos:station:USF.COMPS:C10:1,2010-03-11T18:40:00Z,27.1690,-82.9260,-1.0,11.0,2 
COMPS,ioos:station:USF.COMPS:C10:1,2010-03-11T19:00:00Z,27.1690,-82.9260,-1.0,11.0,2 
COMPS,ioos:station:USF.COMPS:C10:1,2010-03-11T19:20:00Z,27.1690,-82.9260,-1.0,11.0,2 
COMPS,ioos:station:USF.COMPS:C10:1,2010-03-12T04:40:00Z,27.1690,-82.9260,-1.0,12.0,2 
COMPS,ioos:station:USF.COMPS:C10:1,2010-03-12T05:00:00Z,27.1690,-82.9260,-1.0,12.0,2 
COMPS,ioos:station:USF.COMPS:C10:1,2010-03-12T05:20:00Z,27.1690,-82.9260,-1.0,12.0,2 
COMPS,ioos:station:USF.COMPS:C10:1,2010-03-14T04:40:00Z,27.1690,-82.9260,-1.0,14.0,2 
COMPS,ioos:station:USF.COMPS:C10:1,2010-03-14T05:00:00Z,27.1690,-82.9260,-1.0,14.0,2 
COMPS,ioos:station:USF.COMPS:C10:1,2010-03-14T05:20:00Z,27.1690,-82.9260,-1.0,14.0,2 
COMPS,ioos:station:USF.COMPS:C10:1,2010-03-14T05:40:00Z,27.1690,-82.9260,-1.0,14.0,2 
COMPS,ioos:station:USF.COMPS:C10:1,2010-03-14T06:00:00Z,27.1690,-82.9260,-1.0,14.0,2 
COMPS,ioos:station:USF.COMPS:C10:1,2010-03-14T06:20:00Z,27.1690,-82.9260,-1.0,14.0,2 
COMPS,ioos:station:USF.COMPS:C10:1,2010-03-14T10:40:00Z,27.1690,-82.9260,-1.0,14.0,2 
COMPS,ioos:station:USF.COMPS:C10:1,2010-03-14T11:00:00Z,27.1690,-82.9260,-1.0,14.0,2 
COMPS,ioos:station:USF.COMPS:C10:1,2010-03-14T11:20:00Z,27.1690,-82.9260,-1.0,14.0,2 
COMPS,ioos:station:USF.COMPS:C10:1,2010-03-14T13:40:00Z,27.1690,-82.9260,-1.0,14.0,2 
COMPS,ioos:station:USF.COMPS:C10:1,2010-03-14T14:00:00Z,27.1690,-82.9260,-1.0,14.0,2 
COMPS,ioos:station:USF.COMPS:C10:1,2010-03-14T14:20:00Z,27.1690,-82.9260,-1.0,14.0,2 
COMPS,ioos:station:USF.COMPS:C10:1,2010-03-15T05:40:00Z,27.1690,-82.9260,-1.0,15.0,2 
COMPS,ioos:station:USF.COMPS:C10:1,2010-03-15T06:00:00Z,27.1690,-82.9260,-1.0,15.0,2 
COMPS,ioos:station:USF.COMPS:C10:1,2010-03-15T06:20:00Z,27.1690,-82.9260,-1.0,15.0,2 
COMPS,ioos:station:USF.COMPS:C10:1,2010-03-16T00:40:00Z,27.1690,-82.9260,-1.0,16.0,2 
COMPS,ioos:station:USF.COMPS:C10:1,2010-03-16T01:00:00Z,27.1690,-82.9260,-1.0,16.0,2 
COMPS,ioos:station:USF.COMPS:C10:1,2010-03-16T01:20:00Z,27.1690,-82.9260,-1.0,16.0,2 
COMPS,ioos:station:USF.COMPS:C10:1,2010-03-17T19:40:00Z,27.1690,-82.9260,-1.0,17.0,2 
COMPS,ioos:station:USF.COMPS:C10:1,2010-03-17T20:00:00Z,27.1690,-82.9260,-1.0,17.0,2 
COMPS,ioos:station:USF.COMPS:C10:1,2010-03-17T20:20:00Z,27.1690,-82.9260,-1.0,17.0,2 
COMPS,ioos:station:USF.COMPS:C10:1,2010-03-17T21:40:00Z,27.1690,-82.9260,-1.0,17.0,2 
COMPS,ioos:station:USF.COMPS:C10:1,2010-03-17T22:00:00Z,27.1690,-82.9260,-1.0,17.0,2 
COMPS,ioos:station:USF.COMPS:C10:1,2010-03-17T22:20:00Z,27.1690,-82.9260,-1.0,17.0,2 
COMPS,ioos:station:USF.COMPS:C10:1,2010-03-18T00:40:00Z,27.1690,-82.9260,-1.0,18.0,2 
COMPS,ioos:station:USF.COMPS:C10:1,2010-03-18T01:00:00Z,27.1690,-82.9260,-1.0,18.0,2 
COMPS,ioos:station:USF.COMPS:C10:1,2010-03-18T01:20:00Z,27.1690,-82.9260,-1.0,18.0,2 
COMPS,ioos:station:USF.COMPS:C10:1,2010-03-18T01:40:00Z,27.1690,-82.9260,-1.0,18.0,2 
COMPS,ioos:station:USF.COMPS:C10:1,2010-03-18T02:00:00Z,27.1690,-82.9260,-1.0,18.0,2 
COMPS,ioos:station:USF.COMPS:C10:1,2010-03-18T02:20:00Z,27.1690,-82.9260,-1.0,18.0,2 
COMPS,ioos:station:USF.COMPS:C10:1,2010-03-18T03:40:00Z,27.1690,-82.9260,-1.0,18.0,2 
COMPS,ioos:station:USF.COMPS:C10:1,2010-03-18T04:00:00Z,27.1690,-82.9260,-1.0,18.0,2 
COMPS,ioos:station:USF.COMPS:C10:1,2010-03-18T04:20:00Z,27.1690,-82.9260,-1.0,18.0,2 
COMPS,ioos:station:USF.COMPS:C10:1,2010-03-18T13:40:00Z,27.1690,-82.9260,-1.0,18.0,2 
COMPS,ioos:station:USF.COMPS:C10:1,2010-03-18T14:00:00Z,27.1690,-82.9260,-1.0,18.0,2 
COMPS,ioos:station:USF.COMPS:C10:1,2010-03-18T14:20:00Z,27.1690,-82.9260,-1.0,18.0,2 
COMPS,ioos:station:USF.COMPS:C10:1,2010-03-19T00:40:00Z,27.1690,-82.9260,-1.0,19.0,2 
COMPS,ioos:station:USF.COMPS:C10:1,2010-03-19T01:20:00Z,27.1690,-82.9260,-1.0,19.0,2 
COMPS,ioos:station:USF.COMPS:C10:1,2010-03-19T02:00:00Z,27.1690,-82.9260,-1.0,19.0,2 
COMPS,ioos:station:USF.COMPS:C10:1,2010-03-19T03:40:00Z,27.1690,-82.9260,-1.0,19.0,2 
COMPS,ioos:station:USF.COMPS:C10:1,2010-03-19T04:00:00Z,27.1690,-82.9260,-1.0,19.0,2 
COMPS,ioos:station:USF.COMPS:C10:1,2010-03-19T04:20:00Z,27.1690,-82.9260,-1.0,19.0,2 
COMPS,ioos:station:USF.COMPS:C10:1,2010-03-19T04:40:00Z,27.1690,-82.9260,-1.0,19.0,2 
COMPS,ioos:station:USF.COMPS:C10:1,2010-03-19T05:00:00Z,27.1690,-82.9260,-1.0,19.0,2 
COMPS,ioos:station:USF.COMPS:C10:1,2010-03-19T05:20:00Z,27.1690,-82.9260,-1.0,19.0,2 
COMPS,ioos:station:USF.COMPS:C10:1,2010-03-19T10:40:00Z,27.1690,-82.9260,-1.0,19.0,2 
COMPS,ioos:station:USF.COMPS:C10:1,2010-03-19T11:00:00Z,27.1690,-82.9260,-1.0,19.0,2 
COMPS,ioos:station:USF.COMPS:C10:1,2010-03-19T11:20:00Z,27.1690,-82.9260,-1.0,19.0,2 
COMPS,ioos:station:USF.COMPS:C10:1,2010-03-19T20:40:00Z,27.1690,-82.9260,-1.0,19.0,2 
COMPS,ioos:station:USF.COMPS:C10:1,2010-03-19T21:00:00Z,27.1690,-82.9260,-1.0,19.0,2 
COMPS,ioos:station:USF.COMPS:C10:1,2010-03-19T21:20:00Z,27.1690,-82.9260,-1.0,19.0,2 
COMPS,ioos:station:USF.COMPS:C10:1,2010-03-19T23:40:00Z,27.1690,-82.9260,-1.0,20.0,2 
COMPS,ioos:station:USF.COMPS:C10:1,2010-03-20T00:00:00Z,27.1690,-82.9260,-1.0,20.0,2 
COMPS,ioos:station:USF.COMPS:C10:1,2010-03-20T00:20:00Z,27.1690,-82.9260,-1.0,20.0,2 
COMPS,ioos:station:USF.COMPS:C10:1,2010-03-20T02:40:00Z,27.1690,-82.9260,-1.0,20.0,2 
COMPS,ioos:station:USF.COMPS:C10:1,2010-03-20T03:00:00Z,27.1690,-82.9260,-1.0,20.0,2 
COMPS,ioos:station:USF.COMPS:C10:1,2010-03-20T03:20:00Z,27.1690,-82.9260,-1.0,20.0,2 
COMPS,ioos:station:USF.COMPS:C10:1,2010-03-21T23:40:00Z,27.1690,-82.9260,-1.0,21.0,2 
COMPS,ioos:station:USF.COMPS:C10:1,2010-03-22T00:00:00Z,27.1690,-82.9260,-1.0,21.0,2 
COMPS,ioos:station:USF.COMPS:C10:1,2010-03-22T00:20:00Z,27.1690,-82.9260,-1.0,21.0,2 
COMPS,ioos:station:USF.COMPS:C10:1,2010-03-22T03:40:00Z,27.1690,-82.9260,-1.0,22.0,2 
COMPS,ioos:station:USF.COMPS:C10:1,2010-03-22T04:00:00Z,27.1690,-82.9260,-1.0,22.0,2 
COMPS,ioos:station:USF.COMPS:C10:1,2010-03-22T04:20:00Z,27.1690,-82.9260,-1.0,22.0,2 
COMPS,ioos:station:USF.COMPS:C10:1,2010-03-22T09:40:00Z,27.1690,-82.9260,-1.0,22.0,2 
COMPS,ioos:station:USF.COMPS:C10:1,2010-03-22T10:00:00Z,27.1690,-82.9260,-1.0,22.0,2 
COMPS,ioos:station:USF.COMPS:C10:1,2010-03-22T10:20:00Z,27.1690,-82.9260,-1.0,22.0,2 
COMPS,ioos:station:USF.COMPS:C10:1,2010-03-22T11:40:00Z,27.1690,-82.9260,-1.0,22.0,2 
COMPS,ioos:station:USF.COMPS:C10:1,2010-03-22T12:20:00Z,27.1690,-82.9260,-1.0,22.0,2 
COMPS,ioos:station:USF.COMPS:C10:1,2010-03-22T13:00:00Z,27.1690,-82.9260,-1.0,22.0,2 
COMPS,ioos:station:USF.COMPS:C10:1,2010-03-22T14:40:00Z,27.1690,-82.9260,-1.0,22.0,2 
COMPS,ioos:station:USF.COMPS:C10:1,2010-03-22T15:00:00Z,27.1690,-82.9260,-1.0,22.0,2 
COMPS,ioos:station:USF.COMPS:C10:1,2010-03-22T15:20:00Z,27.1690,-82.9260,-1.0,22.0,2 
COMPS,ioos:station:USF.COMPS:C10:1,2010-03-22T20:40:00Z,27.1690,-82.9260,-1.0,22.0,2 
COMPS,ioos:station:USF.COMPS:C10:1,2010-03-22T21:00:00Z,27.1690,-82.9260,-1.0,22.0,2 
COMPS,ioos:station:USF.COMPS:C10:1,2010-03-22T21:20:00Z,27.1690,-82.9260,-1.0,22.0,2 
COMPS,ioos:station:USF.COMPS:C10:1,2010-03-23T02:40:00Z,27.1690,-82.9260,-1.0,23.0,2 
COMPS,ioos:station:USF.COMPS:C10:1,2010-03-23T03:00:00Z,27.1690,-82.9260,-1.0,23.0,2 
COMPS,ioos:station:USF.COMPS:C10:1,2010-03-23T03:20:00Z,27.1690,-82.9260,-1.0,23.0,2 
COMPS,ioos:station:USF.COMPS:C10:1,2010-03-23T12:40:00Z,27.1690,-82.9260,-1.0,23.0,2 
COMPS,ioos:station:USF.COMPS:C10:1,2010-03-23T13:00:00Z,27.1690,-82.9260,-1.0,23.0,2 
COMPS,ioos:station:USF.COMPS:C10:1,2010-03-23T13:20:00Z,27.1690,-82.9260,-1.0,23.0,2 
COMPS,ioos:station:USF.COMPS:C10:1,2010-03-23T19:40:00Z,27.1690,-82.9260,-1.0,23.0,2 
COMPS,ioos:station:USF.COMPS:C10:1,2010-03-23T20:00:00Z,27.1690,-82.9260,-1.0,23.0,2 
COMPS,ioos:station:USF.COMPS:C10:1,2010-03-23T20:20:00Z,27.1690,-82.9260,-1.0,23.0,2 
COMPS,ioos:station:USF.COMPS:C10:1,2010-03-24T14:00:00Z,27.1690,-82.9260,-1.0,14.9,2 
COMPS,ioos:station:USF.COMPS:C10:1,2010-03-24T14:20:00Z,27.1690,-82.9260,-1.0,15.97,2 
COMPS,ioos:station:USF.COMPS:C10:1,2010-03-24T14:40:00Z,27.1690,-82.9260,-1.0,15.96,2 
COMPS,ioos:station:USF.COMPS:C10:1,2010-03-24T15:00:00Z,27.1690,-82.9260,-1.0,15.98,2 
COMPS,ioos:station:USF.COMPS:C10:1,2010-03-24T15:20:00Z,27.1690,-82.9260,-1.0,15.97,2 
COMPS,ioos:station:USF.COMPS:C10:1,2010-03-24T15:40:00Z,27.1690,-82.9260,-1.0,15.99,2 
COMPS,ioos:station:USF.COMPS:C10:1,2010-03-24T16:00:00Z,27.1690,-82.9260,-1.0,16.03,2 
COMPS,ioos:station:USF.COMPS:C10:1,2010-03-24T16:20:00Z,27.1690,-82.9260,-1.0,16.03,2 
COMPS,ioos:station:USF.COMPS:C10:1,2010-03-24T16:40:00Z,27.1690,-82.9260,-1.0,16.04,2 
COMPS,ioos:station:USF.COMPS:C10:1,2010-03-24T17:00:00Z,27.1690,-82.9260,-1.0,16.07,2 
COMPS,ioos:station:USF.COMPS:C10:1,2010-03-24T17:20:00Z,27.1690,-82.9260,-1.0,16.07,2 
COMPS,ioos:station:USF.COMPS:C10:1,2010-03-24T17:40:00Z,27.1690,-82.9260,-1.0,16.11,2 
COMPS,ioos:station:USF.COMPS:C10:1,2010-03-24T18:40:00Z,27.1690,-82.9260,-1.0,16.09,2 
COMPS,ioos:station:USF.COMPS:C10:1,2010-03-24T19:00:00Z,27.1690,-82.9260,-1.0,16.08,2 
COMPS,ioos:station:USF.COMPS:C10:1,2010-03-24T19:20:00Z,27.1690,-82.9260,-1.0,16.09,2 
COMPS,ioos:station:USF.COMPS:C10:1,2010-03-24T19:40:00Z,27.1690,-82.9260,-1.0,16.08,2 
COMPS,ioos:station:USF.COMPS:C10:1,2010-03-24T20:00:00Z,27.1690,-82.9260,-1.0,16.08,2 
COMPS,ioos:station:USF.COMPS:C10:1,2010-03-24T20:20:00Z,27.1690,-82.9260,-1.0,16.1,2 
COMPS,ioos:station:USF.COMPS:C10:1,2010-03-24T20:40:00Z,27.1690,-82.9260,-1.0,16.08,2 
COMPS,ioos:station:USF.COMPS:C10:1,2010-03-24T21:00:00Z,27.1690,-82.9260,-1.0,16.08,2 
COMPS,ioos:station:USF.COMPS:C10:1,2010-03-24T21:20:00Z,27.1690,-82.9260,-1.0,16.1,2 
COMPS,ioos:station:USF.COMPS:C10:1,2010-03-24T21:40:00Z,27.1690,-82.9260,-1.0,16.08,2 
COMPS,ioos:station:USF.COMPS:C10:1,2010-03-24T22:00:00Z,27.1690,-82.9260,-1.0,16.09,2 
COMPS,ioos:station:USF.COMPS:C10:1,2010-03-24T22:20:00Z,27.1690,-82.9260,-1.0,16.09,2 
COMPS,ioos:station:USF.COMPS:C10:1,2010-03-24T22:40:00Z,27.1690,-82.9260,-1.0,16.09,2 
COMPS,ioos:station:USF.COMPS:C10:1,2010-03-24T23:00:00Z,27.1690,-82.9260,-1.0,16.09,2 
COMPS,ioos:station:USF.COMPS:C10:1,2010-03-24T23:20:00Z,27.1690,-82.9260,-1.0,16.07,2 
COMPS,ioos:station:USF.COMPS:C10:1,2010-03-24T23:40:00Z,27.1690,-82.9260,-1.0,16.06,2 
COMPS,ioos:station:USF.COMPS:C10:1,2010-03-25T00:00:00Z,27.1690,-82.9260,-1.0,16.05,2 
COMPS,ioos:station:USF.COMPS:C10:1,2010-03-25T00:20:00Z,27.1690,-82.9260,-1.0,16.08,2 
COMPS,ioos:station:USF.COMPS:C10:1,2010-03-25T00:40:00Z,27.1690,-82.9260,-1.0,16.1,2 
COMPS,ioos:station:USF.COMPS:C10:1,2010-03-25T01:00:00Z,27.1690,-82.9260,-1.0,16.09,2 
COMPS,ioos:station:USF.COMPS:C10:1,2010-03-25T01:20:00Z,27.1690,-82.9260,-1.0,16.11,2 
COMPS,ioos:station:USF.COMPS:C10:1,2010-03-25T01:40:00Z,27.1690,-82.9260,-1.0,16.1,2 
COMPS,ioos:station:USF.COMPS:C10:1,2010-03-25T02:00:00Z,27.1690,-82.9260,-1.0,16.1,2 
COMPS,ioos:station:USF.COMPS:C10:1,2010-03-25T02:20:00Z,27.1690,-82.9260,-1.0,16.12,2 
COMPS,ioos:station:USF.COMPS:C10:1,2010-03-25T02:40:00Z,27.1690,-82.9260,-1.0,16.14,2 
COMPS,ioos:station:USF.COMPS:C10:1,2010-03-25T03:00:00Z,27.1690,-82.9260,-1.0,16.15,2 
COMPS,ioos:station:USF.COMPS:C10:1,2010-03-25T03:20:00Z,27.1690,-82.9260,-1.0,16.11,2 
COMPS,ioos:station:USF.COMPS:C10:1,2010-03-25T03:40:00Z,27.1690,-82.9260,-1.0,16.12,2 
COMPS,ioos:station:USF.COMPS:C10:1,2010-03-25T04:00:00Z,27.1690,-82.9260,-1.0,16.12,2 
COMPS,ioos:station:USF.COMPS:C10:1,2010-03-25T04:20:00Z,27.1690,-82.9260,-1.0,16.13,2 
COMPS,ioos:station:USF.COMPS:C10:1,2010-03-25T04:40:00Z,27.1690,-82.9260,-1.0,16.1,2 
COMPS,ioos:station:USF.COMPS:C10:1,2010-03-25T05:00:00Z,27.1690,-82.9260,-1.0,16.05,2 
COMPS,ioos:station:USF.COMPS:C10:1,2010-03-25T05:20:00Z,27.1690,-82.9260,-1.0,16.03,2 
COMPS,ioos:station:USF.COMPS:C10:1,2010-03-25T05:40:00Z,27.1690,-82.9260,-1.0,16.03,2 
COMPS,ioos:station:USF.COMPS:C10:1,2010-03-25T06:00:00Z,27.1690,-82.9260,-1.0,16.04,2 
COMPS,ioos:station:USF.COMPS:C10:1,2010-03-25T06:20:00Z,27.1690,-82.9260,-1.0,16.04,2 
COMPS,ioos:station:USF.COMPS:C10:1,2010-03-25T06:40:00Z,27.1690,-82.9260,-1.0,16.04,2 
COMPS,ioos:station:USF.COMPS:C10:1,2010-03-25T07:00:00Z,27.1690,-82.9260,-1.0,16.02,2 
COMPS,ioos:station:USF.COMPS:C10:1,2010-03-25T07:20:00Z,27.1690,-82.9260,-1.0,16.02,2 
COMPS,ioos:station:USF.COMPS:C10:1,2010-03-25T07:40:00Z,27.1690,-82.9260,-1.0,16.02,2 
COMPS,ioos:station:USF.COMPS:C10:1,2010-03-25T08:00:00Z,27.1690,-82.9260,-1.0,16.02,2 
COMPS,ioos:station:USF.COMPS:C10:1,2010-03-25T08:20:00Z,27.1690,-82.9260,-1.0,16.01,2 
COMPS,ioos:station:USF.COMPS:C10:1,2010-03-25T08:40:00Z,27.1690,-82.9260,-1.0,16.01,2 
COMPS,ioos:station:USF.COMPS:C10:1,2010-03-25T09:00:00Z,27.1690,-82.9260,-1.0,16.01,2 
COMPS,ioos:station:USF.COMPS:C10:1,2010-03-25T09:20:00Z,27.1690,-82.9260,-1.0,16.19,2 
COMPS,ioos:station:USF.COMPS:C10:1,2010-03-25T09:40:00Z,27.1690,-82.9260,-1.0,16.27,2 
COMPS,ioos:station:USF.COMPS:C10:1,2010-03-25T10:00:00Z,27.1690,-82.9260,-1.0,16.27,2 
COMPS,ioos:station:USF.COMPS:C10:1,2010-03-25T10:20:00Z,27.1690,-82.9260,-1.0,16.33,2 
COMPS,ioos:station:USF.COMPS:C10:1,2010-03-25T10:40:00Z,27.1690,-82.9260,-1.0,16.35,2 
COMPS,ioos:station:USF.COMPS:C10:1,2010-03-25T11:00:00Z,27.1690,-82.9260,-1.0,16.35,2 
COMPS,ioos:station:USF.COMPS:C10:1,2010-03-25T11:20:00Z,27.1690,-82.9260,-1.0,16.33,2 
COMPS,ioos:station:USF.COMPS:C10:1,2010-03-25T11:40:00Z,27.1690,-82.9260,-1.0,16.31,2 
COMPS,ioos:station:USF.COMPS:C10:1,2010-03-25T12:00:00Z,27.1690,-82.9260,-1.0,16.3,2 
COMPS,ioos:station:USF.COMPS:C10:1,2010-03-25T12:20:00Z,27.1690,-82.9260,-1.0,16.29,2 
COMPS,ioos:station:USF.COMPS:C10:1,2010-03-25T12:40:00Z,27.1690,-82.9260,-1.0,16.32,2 
COMPS,ioos:station:USF.COMPS:C10:1,2010-03-25T13:00:00Z,27.1690,-82.9260,-1.0,16.34,2 
COMPS,ioos:station:USF.COMPS:C10:1,2010-03-25T13:20:00Z,27.1690,-82.9260,-1.0,16.36,2 
COMPS,ioos:station:USF.COMPS:C10:1,2010-03-25T13:40:00Z,27.1690,-82.9260,-1.0,16.37,2 
COMPS,ioos:station:USF.COMPS:C10:1,2010-03-25T14:00:00Z,27.1690,-82.9260,-1.0,16.35,2 
COMPS,ioos:station:USF.COMPS:C10:1,2010-03-25T14:20:00Z,27.1690,-82.9260,-1.0,16.38,2 
COMPS,ioos:station:USF.COMPS:C10:1,2010-03-25T14:40:00Z,27.1690,-82.9260,-1.0,16.41,2 
COMPS,ioos:station:USF.COMPS:C10:1,2010-03-25T15:00:00Z,27.1690,-82.9260,-1.0,16.43,2 
COMPS,ioos:station:USF.COMPS:C10:1,2010-03-25T15:20:00Z,27.1690,-82.9260,-1.0,16.45,2 
COMPS,ioos:station:USF.COMPS:C10:1,2010-03-25T15:40:00Z,27.1690,-82.9260,-1.0,16.43,2 
COMPS,ioos:station:USF.COMPS:C10:1,2010-03-25T16:00:00Z,27.1690,-82.9260,-1.0,16.46,2 
COMPS,ioos:station:USF.COMPS:C10:1,2010-03-25T16:20:00Z,27.1690,-82.9260,-1.0,16.49,2 
COMPS,ioos:station:USF.COMPS:C10:1,2010-03-25T16:40:00Z,27.1690,-82.9260,-1.0,16.48,2 
COMPS,ioos:station:USF.COMPS:C10:1,2010-03-25T17:00:00Z,27.1690,-82.9260,-1.0,16.53,2 
COMPS,ioos:station:USF.COMPS:C10:1,2010-03-25T17:20:00Z,27.1690,-82.9260,-1.0,16.52,2 
COMPS,ioos:station:USF.COMPS:C10:1,2010-03-25T17:40:00Z,27.1690,-82.9260,-1.0,16.48,2 
COMPS,ioos:station:USF.COMPS:C10:1,2010-03-25T18:00:00Z,27.1690,-82.9260,-1.0,16.5,2 
COMPS,ioos:station:USF.COMPS:C10:1,2010-03-25T18:20:00Z,27.1690,-82.9260,-1.0,16.51,2 
COMPS,ioos:station:USF.COMPS:C10:1,2010-03-25T18:40:00Z,27.1690,-82.9260,-1.0,16.52,2 
COMPS,ioos:station:USF.COMPS:C10:1,2010-03-25T19:00:00Z,27.1690,-82.9260,-1.0,16.51,2 
COMPS,ioos:station:USF.COMPS:C10:1,2010-03-25T19:20:00Z,27.1690,-82.9260,-1.0,16.51,2 
COMPS,ioos:station:USF.COMPS:C10:1,2010-03-25T19:40:00Z,27.1690,-82.9260,-1.0,16.53,2 
COMPS,ioos:station:USF.COMPS:C10:1,2010-03-25T20:00:00Z,27.1690,-82.9260,-1.0,16.54,2 
COMPS,ioos:station:USF.COMPS:C10:1,2010-03-25T20:20:00Z,27.1690,-82.9260,-1.0,16.54,2 
COMPS,ioos:station:USF.COMPS:C10:1,2010-03-25T20:40:00Z,27.1690,-82.9260,-1.0,16.56,2 
COMPS,ioos:station:USF.COMPS:C10:1,2010-03-25T21:00:00Z,27.1690,-82.9260,-1.0,16.58,2 
COMPS,ioos:station:USF.COMPS:C10:1,2010-03-25T21:20:00Z,27.1690,-82.9260,-1.0,16.61,2 
COMPS,ioos:station:USF.COMPS:C10:1,2010-03-25T21:40:00Z,27.1690,-82.9260,-1.0,16.61,2 
COMPS,ioos:station:USF.COMPS:C10:1,2010-03-25T22:00:00Z,27.1690,-82.9260,-1.0,16.63,2 
COMPS,ioos:station:USF.COMPS:C10:1,2010-03-25T22:20:00Z,27.1690,-82.9260,-1.0,16.61,2 
COMPS,ioos:station:USF.COMPS:C10:1,2010-03-25T22:40:00Z,27.1690,-82.9260,-1.0,16.67,2 
COMPS,ioos:station:USF.COMPS:C10:1,2010-03-25T23:00:00Z,27.1690,-82.9260,-1.0,16.72,2 
COMPS,ioos:station:USF.COMPS:C10:1,2010-03-25T23:20:00Z,27.1690,-82.9260,-1.0,16.72,2 
COMPS,ioos:station:USF.COMPS:C10:1,2010-03-25T23:40:00Z,27.1690,-82.9260,-1.0,16.7,2 
COMPS,ioos:station:USF.COMPS:C10:1,2010-03-26T00:00:00Z,27.1690,-82.9260,-1.0,16.67,2 
COMPS,ioos:station:USF.COMPS:C10:1,2010-03-26T00:20:00Z,27.1690,-82.9260,-1.0,16.64,2 
COMPS,ioos:station:USF.COMPS:C10:1,2010-03-26T00:40:00Z,27.1690,-82.9260,-1.0,16.62,2 
COMPS,ioos:station:USF.COMPS:C10:1,2010-03-26T01:00:00Z,27.1690,-82.9260,-1.0,16.63,2 
COMPS,ioos:station:USF.COMPS:C10:1,2010-03-26T01:20:00Z,27.1690,-82.9260,-1.0,16.63,2 
COMPS,ioos:station:USF.COMPS:C10:1,2010-03-26T01:40:00Z,27.1690,-82.9260,-1.0,16.62,2 
COMPS,ioos:station:USF.COMPS:C10:1,2010-03-26T02:00:00Z,27.1690,-82.9260,-1.0,16.62,2 
COMPS,ioos:station:USF.COMPS:C10:1,2010-03-26T02:20:00Z,27.1690,-82.9260,-1.0,16.61,2 
COMPS,ioos:station:USF.COMPS:C10:1,2010-03-26T02:40:00Z,27.1690,-82.9260,-1.0,16.61,2 
COMPS,ioos:station:USF.COMPS:C10:1,2010-03-26T03:00:00Z,27.1690,-82.9260,-1.0,16.6,2 
COMPS,ioos:station:USF.COMPS:C10:1,2010-03-26T03:20:00Z,27.1690,-82.9260,-1.0,16.59,2 
COMPS,ioos:station:USF.COMPS:C10:1,2010-03-26T03:40:00Z,27.1690,-82.9260,-1.0,16.59,2 
COMPS,ioos:station:USF.COMPS:C10:1,2010-03-26T04:00:00Z,27.1690,-82.9260,-1.0,16.58,2 
COMPS,ioos:station:USF.COMPS:C10:1,2010-03-26T04:20:00Z,27.1690,-82.9260,-1.0,16.57,2 
COMPS,ioos:station:USF.COMPS:C10:1,2010-03-26T04:40:00Z,27.1690,-82.9260,-1.0,16.57,2 
COMPS,ioos:station:USF.COMPS:C10:1,2010-03-26T05:00:00Z,27.1690,-82.9260,-1.0,16.57,2 
COMPS,ioos:station:USF.COMPS:C10:1,2010-03-26T05:20:00Z,27.1690,-82.9260,-1.0,16.57,2 
COMPS,ioos:station:USF.COMPS:C10:1,2010-03-26T05:40:00Z,27.1690,-82.9260,-1.0,16.57,2 
COMPS,ioos:station:USF.COMPS:C10:1,2010-03-26T06:00:00Z,27.1690,-82.9260,-1.0,16.57,2 
COMPS,ioos:station:USF.COMPS:C10:1,2010-03-26T06:20:00Z,27.1690,-82.9260,-1.0,16.58,2 
COMPS,ioos:station:USF.COMPS:C10:1,2010-03-26T06:40:00Z,27.1690,-82.9260,-1.0,16.57,2 
COMPS,ioos:station:USF.COMPS:C10:1,2010-03-26T07:00:00Z,27.1690,-82.9260,-1.0,16.57,2 
COMPS,ioos:station:USF.COMPS:C10:1,2010-03-26T07:20:00Z,27.1690,-82.9260,-1.0,16.57,2 
COMPS,ioos:station:USF.COMPS:C10:1,2010-03-26T07:40:00Z,27.1690,-82.9260,-1.0,16.56,2 
COMPS,ioos:station:USF.COMPS:C10:1,2010-03-26T08:00:00Z,27.1690,-82.9260,-1.0,16.57,2 
COMPS,ioos:station:USF.COMPS:C10:1,2010-03-26T08:20:00Z,27.1690,-82.9260,-1.0,16.56,2 
COMPS,ioos:station:USF.COMPS:C10:1,2010-03-26T08:40:00Z,27.1690,-82.9260,-1.0,16.57,2 
COMPS,ioos:station:USF.COMPS:C10:1,2010-03-26T09:00:00Z,27.1690,-82.9260,-1.0,16.57,2 
COMPS,ioos:station:USF.COMPS:C10:1,2010-03-26T09:20:00Z,27.1690,-82.9260,-1.0,16.56,2 
COMPS,ioos:station:USF.COMPS:C10:1,2010-03-26T09:40:00Z,27.1690,-82.9260,-1.0,16.57,2 
COMPS,ioos:station:USF.COMPS:C10:1,2010-03-26T10:00:00Z,27.1690,-82.9260,-1.0,16.57,2 
COMPS,ioos:station:USF.COMPS:C10:1,2010-03-26T10:20:00Z,27.1690,-82.9260,-1.0,16.56,2 
COMPS,ioos:station:USF.COMPS:C10:1,2010-03-26T10:40:00Z,27.1690,-82.9260,-1.0,16.57,2 
COMPS,ioos:station:USF.COMPS:C10:1,2010-03-26T11:00:00Z,27.1690,-82.9260,-1.0,16.57,2 
COMPS,ioos:station:USF.COMPS:C10:1,2010-03-26T11:20:00Z,27.1690,-82.9260,-1.0,16.57,2 
COMPS,ioos:station:USF.COMPS:C10:1,2010-03-26T11:40:00Z,27.1690,-82.9260,-1.0,16.58,2 
COMPS,ioos:station:USF.COMPS:C10:1,2010-03-26T12:00:00Z,27.1690,-82.9260,-1.0,16.58,2 
COMPS,ioos:station:USF.COMPS:C10:1,2010-03-26T12:20:00Z,27.1690,-82.9260,-1.0,16.58,2 
COMPS,ioos:station:USF.COMPS:C10:1,2010-03-26T12:40:00Z,27.1690,-82.9260,-1.0,16.57,2 
COMPS,ioos:station:USF.COMPS:C10:1,2010-03-26T13:00:00Z,27.1690,-82.9260,-1.0,16.56,2 
COMPS,ioos:station:USF.COMPS:C10:1,2010-03-26T13:20:00Z,27.1690,-82.9260,-1.0,16.56,2 
COMPS,ioos:station:USF.COMPS:C10:1,2010-03-26T13:40:00Z,27.1690,-82.9260,-1.0,16.57,2 
COMPS,ioos:station:USF.COMPS:C10:1,2010-03-26T14:00:00Z,27.1690,-82.9260,-1.0,16.58,2 
COMPS,ioos:station:USF.COMPS:C10:1,2010-03-26T14:20:00Z,27.1690,-82.9260,-1.0,16.59,2 
COMPS,ioos:station:USF.COMPS:C10:1,2010-03-26T14:40:00Z,27.1690,-82.9260,-1.0,16.59,2 
COMPS,ioos:station:USF.COMPS:C10:1,2010-03-26T15:00:00Z,27.1690,-82.9260,-1.0,16.59,2 
COMPS,ioos:station:USF.COMPS:C10:1,2010-03-26T15:20:00Z,27.1690,-82.9260,-1.0,16.6,2 
COMPS,ioos:station:USF.COMPS:C10:1,2010-03-26T15:40:00Z,27.1690,-82.9260,-1.0,16.6,2 
COMPS,ioos:station:USF.COMPS:C10:1,2010-03-26T16:00:00Z,27.1690,-82.9260,-1.0,16.6,2 
COMPS,ioos:station:USF.COMPS:C10:1,2010-03-26T16:20:00Z,27.1690,-82.9260,-1.0,16.61,2 
COMPS,ioos:station:USF.COMPS:C10:1,2010-03-26T16:40:00Z,27.1690,-82.9260,-1.0,16.61,2 
COMPS,ioos:station:USF.COMPS:C10:1,2010-03-26T17:00:00Z,27.1690,-82.9260,-1.0,16.62,2 
COMPS,ioos:station:USF.COMPS:C10:1,2010-03-26T17:20:00Z,27.1690,-82.9260,-1.0,16.63,2 
COMPS,ioos:station:USF.COMPS:C10:1,2010-03-26T17:40:00Z,27.1690,-82.9260,-1.0,16.64,2 
COMPS,ioos:station:USF.COMPS:C10:1,2010-03-26T18:00:00Z,27.1690,-82.9260,-1.0,16.66,2 
COMPS,ioos:station:USF.COMPS:C10:1,2010-03-26T18:20:00Z,27.1690,-82.9260,-1.0,16.67,2 
COMPS,ioos:station:USF.COMPS:C10:1,2010-03-26T18:40:00Z,27.1690,-82.9260,-1.0,16.69,2 
COMPS,ioos:station:USF.COMPS:C10:1,2010-03-26T19:00:00Z,27.1690,-82.9260,-1.0,16.69,2 
COMPS,ioos:station:USF.COMPS:C10:1,2010-03-26T19:20:00Z,27.1690,-82.9260,-1.0,16.69,2 
COMPS,ioos:station:USF.COMPS:C10:1,2010-03-26T19:40:00Z,27.1690,-82.9260,-1.0,16.75,2 
COMPS,ioos:station:USF.COMPS:C10:1,2010-03-26T20:00:00Z,27.1690,-82.9260,-1.0,16.85,2 
COMPS,ioos:station:USF.COMPS:C10:1,2010-03-26T20:20:00Z,27.1690,-82.9260,-1.0,17.0,2 
COMPS,ioos:station:USF.COMPS:C10:1,2010-03-26T20:40:00Z,27.1690,-82.9260,-1.0,17.03,2 
COMPS,ioos:station:USF.COMPS:C10:1,2010-03-26T21:00:00Z,27.1690,-82.9260,-1.0,16.97,2 
COMPS,ioos:station:USF.COMPS:C10:1,2010-03-26T21:20:00Z,27.1690,-82.9260,-1.0,17.03,2 
COMPS,ioos:station:USF.COMPS:C10:1,2010-03-26T21:40:00Z,27.1690,-82.9260,-1.0,17.04,2 
COMPS,ioos:station:USF.COMPS:C10:1,2010-03-26T22:00:00Z,27.1690,-82.9260,-1.0,17.07,2 
COMPS,ioos:station:USF.COMPS:C10:1,2010-03-26T22:20:00Z,27.1690,-82.9260,-1.0,17.07,2 